Back to catalog

THOR ABLESTAR DEB

AliveLEO
NORAD 172·DEBRIS·🇺🇸 United States

Launched Jun 29, 1961 from Cape Canaveral Space Force Station

Loading…

Next Passes (next 24 hours)

TLE

FreshSource: Space-Track

Epoch: Sep 14, 2026, 13:53 UTC

1 00172U 61015AY  26257.57864126  .00000413  00000-0  61705-3 0  9994
2 00172  67.0691 323.4931 0131091 358.5202   1.5456 13.59320343217268

Track THOR ABLESTAR DEB in real time with AllMySat

Download on the App Store